Location: Unspecified
(0.0000°N, 0.0000°E)
Time: 04:01:26
(UTC+02:00)

Centaur D-1AR AC-41 - Visible Passes

Search period start: 21 April 2014 00:00
Search period end: 01 May 2014 00:00
Orbit: 622 x 36222 km, 21.3° (Epoch: 19 April)

Date Brightness Start Highest point End Pass type
(mag) Time Alt. Az. Time Alt. Az. Time Alt. Az.
21 Apr 6.8 04:17:39 82° W 04:20:13 88° NNW 14:18:22 10° E visible
22 Apr 7.7 01:53:28 30° E 01:53:28 30° E 11:36:03 10° E visible
23 Apr 5.6 20:27:24 10° WSW 20:30:32 12° SSW 20:32:44 10° S visible
25 Apr 7.1 05:28:47 44° W 15:14:14 85° NNE 15:34:16 10° ESE visible
26 Apr 7.1 03:04:34 64° E 03:04:34 64° E 12:58:47 10° E visible
27 Apr 8.2 00:40:21 11° E 00:40:21 11° E 00:41:29 10° E visible
27 Apr 10.5 04:43:29 10° ENE 08:34:54 29° ENE 10:05:55 10° E visible
29 Apr 6.4 06:39:47 16° W 16:37:13 73° SSW 16:48:34 10° SE visible
30 Apr 7.0 04:15:32 73° WNW 04:20:40 80° NNW 14:16:26 10° ESE visible
